{"data":{"norad_id":68415,"intl_designator":"2026-066D","name":"TIANSHI-01","alt_names":[],"object_type":"PAYLOAD","status":"ACTIVE","operator":null,"country":"PRC","launch_date":"2026-03-30","launch_site_code":"JSC","launch_vehicle":null,"mission":null,"orbit_class":"UNKNOWN","rcs_meters":null,"size_class":null,"mass_kg":null,"dimensions":null,"purposes":[],"wikipedia_slug":null,"has_3d_model":false,"image_url":null,"decayed_at":null,"tle_current":{"epoch":"2026-09-20T04:34:11.910432Z","epoch_age_seconds":95620,"freshness":"FRESH","line1":"1 68415U 26066D   26263.19041563  .00001522  00000+0  15810-3 0  9999","line2":"2 68415  84.9703 167.2722 0023354 284.0894  75.7734 14.88972195 25864","mean_motion":14.88972195,"eccentricity":0.0023354,"inclination_deg":84.9703,"raan_deg":167.2722,"arg_perigee_deg":284.0894,"mean_anomaly_deg":75.7734,"bstar":0.0001581,"rev_number":2586,"period_min":96.711006749189,"perigee_km":584.84616661434,"apogee_km":617.44499970376,"semimajor_km":6979.282583159,"source":"CELESTRAK","updated_at":"2026-09-20T09:00:24.197140Z"}}}